Location: Gülübeli Geçidi
(36.8411°N, 29.7411°E)
Time: 12:34:05
(UTC+00:00)

Cosmos 2297 Rocket - Pass Details

Date: 15 May 2026
Orbit: 838 x 842 km, 71.0° (Epoch: 8 June)

Event Time Altitude Azimuth Distance (km) Brightness Sun altitude
Exits shadow 21:46:21 45° 359° (N) 1,134 3.1 -34.1°
Drops below altitude 10° 21:50:17 10° 17° (NNE) 2,459 5.3 -34.1°
Sets 21:52:45 0° 20° (NNE) 3,398 6.3 -34.1°
